Regional Weather Roundup
Issued by NWS Little Rock, AR

Home | Current Version | Previous Version | Graphics & Text | Print | Product List | Glossary On
Versions: 1 2 3 4 5 6 7 8 9 10 11 12 13 14 15 16 17 18 19 20 21 22 23 24 25 26 27 28 29 30 31 32 33 34 35 36 37 38 39 40 41 42 43 44 45 46 47 48 49 50
000
ASUS44 KLZK 041905
RWRLZK

WEATHER ROUNDUP FOR ARKANSAS
NATIONAL WEATHER SERVICE LITTLE ROCK AR
100 PM CST SUN DEC 04 2016

NOTE: "FAIR" INDICATES FEW OR NO CLOUDS BELOW 12,000 FEET WITH NO
SIGNIFICANT WEATHER AND/OR OBSTRUCTIONS TO VISIBILITY.

ARZ001-003-010-029-042000-
NORTHWEST ARKANSAS

CITY           SKY/WX    TMP DP  RH WIND       PRES   REMARKS
FAYETTEVILLE   CLOUDY    45  42  89 NW9       30.01F
FORT SMITH     CLOUDY    47  43  86 W7        30.03F
HARRISON       CLOUDY    43  41  93 NW8       29.99F
BENTONVILLE    CLOUDY    45  36  70 NW10      30.01S
ROGERS         CLOUDY    44  40  85 NW8       30.00F
SILOAM SPGS    CLOUDY    46  39  76 NW13      30.01S
HIGHFILL       CLOUDY    46  42  86 NW8       30.00F
SPRINGDALE     CLOUDY    45  41  87 NW9       30.02F
$$

ARZ004-005-016-042000-
NORTH CENTRAL ARKANSAS

CITY           SKY/WX    TMP DP  RH WIND       PRES   REMARKS
BATESVILLE     CLOUDY    43  39  87 NW3       30.01F
FLIPPIN        CLOUDY    45  37  76 NW7       29.97F
MTN HOME       CLOUDY    42  41  96 VRB5      29.98F
$$

ARZ040-041-042000-
WEST CENTRAL ARKANSAS

CITY           SKY/WX    TMP DP  RH WIND       PRES   REMARKS
MENA           PTSUNNY   50  46  87 N7        30.01F
MOUNT IDA      CLOUDY    48  43  82 NW5       29.98F
$$

ARZ009-017-025-026-028-042000-
NORTHEAST ARKANSAS

CITY           SKY/WX    TMP DP  RH WIND       PRES   REMARKS
CORNING        CLOUDY    43  43 100 SW6       29.99F
JONESBORO      CLOUDY    44  42  93 NW6       29.99F
NEWPORT        CLOUDY    43  42  97 NW7       30.01S
WALNUT RIDGE   CLOUDY    43  39  87 W5        29.99F
BLYTHEVILLE    CLOUDY    47  44  90 NW7       29.98F
$$

ARZ022-023-033-042-044-042000-
CENTRAL ARKANSAS

CITY           SKY/WX    TMP DP  RH WIND       PRES   REMARKS
LITTLE ROCK    CLOUDY    45  44  97 W8        30.03S
N LITTLE ROCK    N/A     43  42  96 N3        30.04S
JACKSONVILLE   CLOUDY    45  44  97 W3        30.01S
SEARCY         CLOUDY    45  43  93 W6        30.03S
HOT SPRINGS    CLOUDY    49  44  83 CALM      30.02S
RUSSELLVILLE   CLOUDY    47  42  83 W10       30.01F
CLINTON        CLOUDY    46  45  93 SE3       29.99F
$$

ARZ036-042000-
EAST ARKANSAS

CITY           SKY/WX    TMP DP  RH WIND       PRES   REMARKS
WEST MEMPHIS   CLOUDY    45  44  97 NW7       29.99R FOG
$$

ARZ050-053-066-070-073-042000-
SOUTHWEST ARKANSAS

CITY           SKY/WX    TMP DP  RH WIND       PRES   REMARKS
ARKADELPHIA    CLOUDY    48  45  89 NW5       30.03S
CAMDEN         CLOUDY    48  45  87 NW8       30.03S
TEXARKANA      CLOUDY    49  46  90 N5        30.03F
EL DORADO      CLOUDY    48  46  93 NW9       30.02S
DE QUEEN       CLOUDY    53  47  79 CALM      30.01F
$$

ARZ056-057-069-042000-
SOUTHEAST ARKANSAS

CITY           SKY/WX    TMP DP  RH WIND       PRES   REMARKS
PINE BLUFF     CLOUDY    45  44  97 N7        30.01F
STUTTGART      CLOUDY    45  39  81 NW9       30.01S
MONTICELLO     CLOUDY    48  46  93 NW6       30.00F

$$





USA.gov is the U.S. government's official web portal to all federal, state and local government web resources and services.